User: anonymous   Login
Location: Newark
(0.5300°S, 127.4800°E)
Time: 08:58:51
(UTC+00:00)
Language:

Transit 2A Rocket - Orbit

View from above orbital plane
View from above orbital plane
View from above satellite
View from above satellite

Ground track
Ground track

The orbit data is extracted from the following two-line orbital elements,

1    47U 60007C   19262.13786244 -.00000030  00000-0  18311-4 0  9991
2    47  66.6661 163.1018 0223569 144.1352 217.5001 14.42049088 95865
Epoch (UTC): 19 September 2019 03:18:31
Eccentricity: 0.0223569
inclination: 66.6661°
perigee height: 592 km
apogee height: 911 km
right ascension of ascending node: 163.1018°
argument of perigee: 144.1352°
revolutions per day: 14.42049088
mean anomaly at epoch: 217.5001°
orbit number at epoch: 9586

The dashed part of the orbit path shows where the satellite is in the earth's shadow,  

DLR